{"data":{"norad_id":58835,"intl_designator":"2024-017K","name":"STARLINK-31246","alt_names":[],"object_type":"PAYLOAD","status":"ACTIVE","operator":null,"country":"US","launch_date":"2024-01-24","launch_site_code":"AFWTR","launch_vehicle":null,"mission":null,"orbit_class":"UNKNOWN","rcs_meters":null,"size_class":null,"mass_kg":null,"dimensions":null,"purposes":["comms"],"wikipedia_slug":null,"has_3d_model":false,"image_url":null,"decayed_at":null,"tle_current":{"epoch":"2026-09-20T11:52:24.794688Z","epoch_age_seconds":152987,"freshness":"FRESH","line1":"1 58835U 24017K   26263.49473142  .00001117  00000+0  44213-4 0  9993","line2":"2 58835  53.1573  17.9197 0002012 111.9667 248.1550 15.34390531149907","mean_motion":15.34390531,"eccentricity":0.0002012,"inclination_deg":53.1573,"raan_deg":17.9197,"arg_perigee_deg":111.9667,"mean_anomaly_deg":248.155,"bstar":4.4213e-5,"rev_number":14990,"period_min":93.848337232733,"perigee_km":461.35500149644,"apogee_km":464.10776693424,"semimajor_km":6840.8683842153,"source":"CELESTRAK","updated_at":"2026-09-21T09:00:33.984405Z"}}}